www.pogodaiklimat.ru

Погода и климат >> Архив погоды >> Индонезия >> Surabaya Perak


ПОГОДА в Surabaya Perak

  • Прогноз погоды в Surabaya Perak
  • Монитор погоды в Surabaya Perak
  • Климат города

АРХИВ ПОГОДЫ в Surabaya Perak

Время (UTC), дата Ветер
(напр.,м/с)
 
Видим.   Явления Облачность Т
(С)
Тd
(С)
f
(%)
Тe
(С)
Тes
(С)
Комфортность P
(гПа)
Po
(гПа)
Тmin
(С)
Tmax
(С)
R
(мм)
R24
(мм)
S
(см)
15 14.10 штиль 0 10 км 4/3 600 м
[Cu hum Ci fib]
+29.6 +24.4 74 +42 +42 опасность
перегрева
1013.2 1012.9
18 14.10 штиль 0 10 км 3/0
[Ci fib]
+28.4 +24.3 78 +40 +40 очень
душно
1012.0 1011.7
21 14.10 штиль 0 10 км 4/0
[Ci fib]
+26.6 +23.0 81 +36 +36 очень
душно
1012.3 1011.9
00 15.10 штиль 0 10 км 3/0
[Ci fib]
+27.8 +22.4 72 +36 +40 очень
душно
1013.9 1013.6 +25.8
03 15.10 В 2 11 км 4/3 600 м
[Cu hum Ci fib]
+32.4 +23.2 58 +43 +57 опасность
перегрева
1013.2 1012.9
06 15.10 В 4 12 км ясно +35.6 +21.8 45 +44 +58 опасность
перегрева
1010.4 1010.0
09 15.10 ЮВ 3 12 км ясно +34.8 +19.4 40 +40 +43 очень
душно
1009.2 1008.9
12 15.10 штиль 0 50 км ?/? +30.6 +23.8 67 +42 +42 опасность
перегрева
1011.5 1011.2 +36.4
15 15.10 штиль 0 10 км 3/0
[Ci fib]
+29.5 +24.5 75 +42 +42 опасность
перегрева
1013.0 1012.6
18 15.10 штиль 0 10 км 3/0
[Ci fib]
+28.4 +23.7 76 +39 +39 очень
душно
1011.7 1011.4
21 15.10 штиль 0 10 км 3/0
[Ci fib]
+26.6 +22.3 77 +35 +35 очень
душно
1012.1 1011.7
00 16.10 штиль 0 9000 м 4/0
[Ci fib]
+27.4 +22.5 75 +36 +40 очень
душно
1013.4 1013.0 +25.8
03 16.10 С 2 12 км 6/1 600 м
[Cu hum As trans Ci fib]
+32.2 +23.2 59 +43 +55 опасность
перегрева
1012.4 1012.0
06 16.10 ЮВ 5 12 км 4/1 600 м
[Cu hum Ci fib]
+35.4 +20.0 41 +41 +50 опасность
перегрева
1009.9 1009.6
09 16.10 В 2 12 км 6/0
[Ci fib]
+34.8 +19.6 41 +40 +43 очень
душно
1008.5 1008.2
12 16.10 Ю 3 8000 м ясно +31.3 +24.1 66 +43 +43 опасность
перегрева
1010.7 1010.4 +35.9
15 16.10 штиль 0 8000 м ясно +29.6 +24.4 74 +42 +42 опасность
перегрева
1012.0 1011.6
18 16.10 штиль 0 8000 м ясно +27.6 +22.7 75 +37 +37 очень
душно
1010.7 1010.4
21 16.10 штиль 0 8000 м 5/5 600 м
[Cu hum]
+26.9 +22.4 76 +35 +35 очень
душно
1011.1 1010.8
00 17.10 Ю 1 9000 м 6/0
[As trans Ci fib]
+27.4 +22.4 74 +36 +39 очень
душно
1013.1 1012.7 +26.2
03 17.10 СВ 3 10 км 5/1 600 м
[Cu hum Ci fib]
+32.8 +24.0 60 +45 +57 опасность
перегрева
1012.3 1012.0
06 17.10 В 3 11 км 5/1 600 м
[Cu hum Ci fib]
+35.8 +23.0 48 +46 +60 опасность
перегрева
1008.6 1008.3
09 17.10 СВ 3 11 км 5/1 600 м
[Cu hum As trans Ci sp]
+34.6 +21.6 47 +43 +45 опасность
перегрева
1007.3 1007.0
12 17.10 В 2 9000 м 4/1 600 м
[Cu hum Ci sp]
+31.2 +23.9 65 +43 +43 опасность
перегрева
1009.5 1009.2 +36.3
15 17.10 СВ 1 9000 м 3/0
[Ci fib]
+29.6 +25.3 78 +43 +43 опасность
перегрева
1010.6 1010.3
18 17.10 СВ 3 9000 м 3/0
[Ci fib]
+27.0 +24.0 84 +37 +37 очень
душно
1009.9 1009.6
21 17.10 штиль 0 9000 м 3/0
[Ci sp]
+26.4 +22.5 79 +35 +35 очень
душно
1010.1 1009.8
00 18.10 СВ 3 9000 м 5/0
[Ac trans Ci fib]
+28.6 +23.7 75 +39 +42 очень
душно
1012.0 1011.7 +25.7
03 18.10 В 3 10 км 6/3 600 м
[Cu hum As trans Ci fib]
+33.3 +22.4 53 +43 +51 опасность
перегрева
1012.1 1011.8
06 18.10 ЮВ 4 11 км 5/0
[Ci fib]
+35.3 +23.3 50 +46 +56 опасность
перегрева
1009.0 1008.7
09 18.10 ЮВ 5 11 км 4/0
[As trans Ci fib]
+33.4 +23.2 55 +44 +46 опасность
перегрева
1008.0 1007.6
12 18.10 ЮВ 2 9000 м 1/1 600 м
[Cu hum Ci fib]
+30.6 +23.6 66 +41 +41 опасность
перегрева
1010.5 1010.1 +35.8
15 18.10 штиль 0 9000 м ясно +29.4 +23.2 69 +39 +39 очень
душно
1012.3 1011.9
18 18.10 штиль 0 8000 м ясно +27.5 +21.9 72 +36 +36 очень
душно
1011.6 1011.3
21 18.10 штиль 0 8000 м 1/0
[Ci fib]
+26.6 +22.0 76 +34 +34 очень
душно
1011.6 1011.3
00 19.10 штиль 0 9000 м 4/0
[Ci fib]
+27.5 +22.2 73 +36 +40 очень
душно
1013.5 1013.1 +26.3
03 19.10 ЮВ 3 10 км 4/0
[Ci fib]
+33.6 +21.2 48 +41 +55 опасность
перегрева
1012.7 1012.3
06 19.10 В 3 11 км 3/0
[Ci fib]
+34.7 +20.8 44 +41 +56 опасность
перегрева
1010.0 1009.6
09 19.10 ЮВ 2 10 км 4/0
[Ci fib]
+33.2 +21.8 51 +41 +44 опасность
перегрева
1009.0 1008.7
12 19.10 штиль 0 10 км 4/1 600 м
[Cu hum Ci fib]
+30.4 +23.6 67 +41 +41 опасность
перегрева
1011.3 1011.0 +34.7
15 19.10 ЮВ 1 9000 м 1/0
[Ci fib]
+29.0 +22.9 70 +39 +39 очень
душно
1012.6 1012.3
18 19.10 штиль 0 9000 м 1/0
[Ci fib]
+27.0 +21.5 72 +34 +34 очень
душно
1011.8 1011.4
21 19.10 штиль 0 9000 м 1/0
[Ci fib]
+25.6 +19.8 70 +31 +31 очень
душно
1012.3 1012.0
00 20.10 штиль 0 10 км 5/0
[Ci fib]
+26.8 +21.4 72 +34 +38 очень
душно
1014.0 1013.7 +25.0
03 20.10 С 1 11 км 5/0
[Ci fib]
+32.0 +22.6 58 +42 +58 опасность
перегрева
1013.4 1013.1
06 20.10 В 4 11 км 6/1 600 м
[Cu hum As trans Ci fib]
+35.2 +20.6 43 +42 +50 опасность
перегрева
1010.3 1010.0
09 20.10 В 2 11 км 6/3 600 м
[Cu hum As trans Ci fib]
+33.4 +20.1 46 +40 +42 очень
душно
1009.5 1009.2
12 20.10 ЮВ 2 10 км 4/0
[Ci fib]
+30.4 +23.9 68 +42 +42 опасность
перегрева
1012.0 1011.6 +35.4
15 20.10 штиль 0 10 км 4/0
[Ci fib]
+29.2 +22.5 67 +38 +38 очень
душно
1013.0 1012.7
18 20.10 штиль 0 10 км 3/0
[Ci fib]
+27.2 +22.5 76 +36 +36 очень
душно
1012.2 1011.9
21 20.10 штиль 0 9000 м 3/0
[Ci fib]
+26.4 +22.2 78 +34 +34 очень
душно
1012.4 1012.1
00 21.10 штиль 0 9000 м 5/0
[Ci fib]
+27.2 +23.0 78 +36 +40 очень
душно
1014.1 1013.8 +25.9
03 21.10 ЮВ 2 10 км 5/3 600 м
[Cu hum As trans Ci fib]
+33.0 +22.2 53 +42 +53 опасность
перегрева
1013.6 1013.3
06 21.10 В 3 11 км 6/3 600 м
[Cu hum Ci fib]
+35.6 +20.1 40 +41 +51 опасность
перегрева
1010.5 1010.2
09 21.10 В 2 10 км 9/3 600 м
[Cu hum As trans Ci fib]
+32.9 +22.3 54 +42 +44 опасность
перегрева
1009.7 1009.4
12 21.10 В 3 10 км 4/1 600 м
[Cu hum Ci fib]
+30.2 +23.3 67 +41 +41 опасность
перегрева
1012.0 1011.7 +35.6

 

Местоположение метеостанции Surabaya Perak (Индонезия): широта -7.22 долгота 112.71 высота над уровнем моря 3 м.

В архиве по умолчанию представлена погода в Surabaya Perak за последнюю неделю. Архивные данные за месяц целиком и за предыдущие месяцы, начиная с января 2011 года, Вы можете получить, выбрав интересующий диапазон дат из раскрывающегося списка и нажав кнопку "Ввод!".


*Определитесь, кто Вы:
робот инопланетянин человек

Внимание! Время в таблицах - всемирное. Для получения местного времени необходимо прибавить поправку, которая в Surabaya Perak равна 7 ч.

Смотрите также архив погоды в соседних городах и на ближайших метеорологических станциях:

Погода в Juanda Int Airport (Индонезия) (18 км)
Погода в Surabaya Gedangan (Индонезия) (110 км)
Погода в Kalianget (Индонезия) (139 км)
Погода в Sangkapura (Индонезия) (153 км)
Погода в Banyuwangi (Индонезия) (215 км)
Погода в Semarang (Индонезия) (255 км)
Погода в Achmad Yani Int Airport (Индонезия) (259 км)
Погода в Denpasar (Индонезия) (319 км)
Погода в Tegal (Индонезия) (395 км)
Погода в Mataram (Индонезия) (397 км)

Пояснения к столбцам:

Ветер - указаны скорость ветра в м/с - средняя за 10 мин, порывы в срок и между сроками (в фигурных скобках) и направление, откуда дует ветер: С - северный, СВ - северо-восточный, В - восточный, ЮВ - юго-восточный, Ю - южный, ЮЗ - юго-западный, З - западный, СЗ - северо-западный.
Видимость - горизонтальная дальность видимости в метрах или километрах. При видимости от 1 до 10 км при отсутствии осадков обычно наблюдается дымка, при ухудшении видимости до 1 км и менее - туман. В сухую погоду видимость может ухудшаться дымом, пылью или мглою.
Явления - указаны атмосферные явления, наблюдавшиеся в срок или в последний час перед сроком; фигурными скобками обозначены явления, наблюдавшиеся между сроками (за 1-3 часа до срока); квадратными скобками обозначены град или гололедные отложения с указанием их диаметра в мм.
Облачность - указаны через наклонную черту общая и нижняя облачность в баллах и высота нижней границы облаков в метрах; квадратными скобками обозначены формы облаков: Ci - перистые, Cs - перисто-слоистые, Cc - перисто-кучевые, Ac - высококучевые, As - высокослоистые, Sc - слоисто-кучевые, Ns - слоисто-дождевые, Cu - кучевые, Cb - кучево-дождевые. Подробнее классификацию облаков см. в Атласе облаков (PDF).
T - Температура воздуха - температура, измеренная на высоте 2 м над землей.
Td - Температура точки росы - температура, при понижении до которой содержащийся в воздухе водяной пар достигнет насыщения.
f - Относительная влажность воздуха - влажноcть воздуха, измеренная на высоте 2 м над землей.
Te - Эффективная температура - температура, которую ощущает одетый по сезону человек в тени. Характеристика душности погоды. При расчете учитывается влияние влажности воздуха и скорости ветра на теплоощущения человека.
Tes - Эффективная температура на солнце - температура, которую ощущает человек, с поправкой на солнечный нагрев. Характеристика знойности погоды. Зависит от высоты солнца над горизонтом, облачности и скорости ветра. Ночью, в пасмурную погоду, а также при ветре 12 м/с и более поправка равна нулю.
P - Атмосферное давление - приведенное к уровню моря атмосферное давление.
Po - Атмосферное давление - измеренное на уровне метеостанции атмосферное давление.
Tmin - Минимальная температура - минимум температуры воздуха на высоте 2 м над землей.
Tmax - Максимальная температура - максимум температуры воздуха на высоте 2 м над землей.
R - Количество осадков - Количество выпавших осадков за период времени, мм. При наведении курсора мыши на число - период времени, за который выпало указанное количество осадков.
R24 - Количество осадков - Количество выпавших осадков за 24 часа, мм.
S - Снежный покров - Высота снежного покрова, см. При наведении курсора мыши на число - состояние снежного покрова и степень покрытия местности в баллах.